DW4669 Weather Reports


Display with metric or nautical units.
time (UTC)temp
F
wind
direction
speed
MPH
gust
MPH
rain 1hr
in
rain 24hr
in
rain mn
in
humidity
%
barometer
mb
20260904110040 67 0 0.0 0.0 0.00 0.30 0.30 98 1011.8
20260904105518 67 0 0.0 1.0 0.00 0.30 0.30 98 1011.7
20260904105016 67 0 0.0 1.0 0.00 0.30 0.30 98 1011.8
20260904104540 68 0 0.0 0.0 0.00 0.30 0.30 98 1011.7
20260904104016 68 0 0.0 0.0 0.00 0.30 0.30 98 1011.6
20260904103517 68 0 0.0 1.0 0.00 0.30 0.30 98 1011.6
20260904103034 68 0 0.0 3.0 0.00 0.30 0.30 98 1011.6
20260904102518 67 0 0.0 3.0 0.00 0.30 0.30 98 1011.4
20260904102017 67 0 0.0 2.0 0.00 0.30 0.30 98 1011.3
20260904101535 67 0 0.0 1.0 0.00 0.30 0.30 98 1011.5
20260904101017 67 0 0.0 0.0 0.00 0.30 0.30 98 1011.3
20260904100515 67 0 0.0 0.0 0.00 0.30 0.30 98 1011.4
20260904100037 67 0 0.0 0.0 0.00 0.30 0.30 97 1011.3
20260904095519 67 0 0.0 0.0 0.00 0.30 0.30 98 1011.1
20260904095017 67 0 0.0 0.0 0.00 0.30 0.30 97 1011.1
20260904094536 67 0 0.0 0.0 0.00 0.30 0.30 98 1011.0
20260904094016 67 0 0.0 0.0 0.00 0.30 0.30 97 1010.9
20260904093516 67 0 0.0 0.0 0.00 0.30 0.30 97 1010.8
20260904093035 67 0 0.0 0.0 0.00 0.30 0.30 98 1010.9
20260904092517 68 0 0.0 0.0 0.00 0.30 0.30 98 1010.9
20260904092017 68 0 0.0 1.0 0.00 0.30 0.30 98 1010.7
20260904091549 68 0 0.0 1.0 0.00 0.30 0.30 97 1010.8
20260904091017 68 0 0.0 1.0 0.00 0.30 0.30 98 1010.9
20260904090517 68 0 0.0 1.0 0.00 0.30 0.30 98 1010.9
20260904090037 68 0 0.0 1.0 0.00 0.30 0.30 98 1011.0
20260904085518 68 0 0.0 0.0 0.00 0.31 0.30 98 1011.1
20260904085020 68 0 0.0 0.0 0.00 0.31 0.30 98 1011.0
20260904084534 68 0 0.0 0.0 0.00 0.31 0.30 98 1011.0
20260904084018 68 0 0.0 0.0 0.00 0.31 0.30 98 1010.9
20260904083516 68 0 0.0 0.0 0.00 0.31 0.30 97 1010.7
20260904083040 69 0 0.0 1.0 0.00 0.31 0.30 98 1010.7
20260904082518 69 0 0.0 1.0 0.00 0.31 0.30 97 1010.7
20260904082016 69 0 0.0 1.0 0.00 0.31 0.30 97 1010.7
20260904081534 69 0 0.0 1.0 0.00 0.31 0.30 98 1010.7
20260904081017 69 0 0.0 1.0 0.00 0.31 0.30 98 1010.7
20260904080518 69 0 0.0 0.0 0.01 0.31 0.30 98 1010.6
20260904080039 69 0 0.0 0.0 0.01 0.31 0.30 98 1010.3
20260904075518 69 0 0.0 0.0 0.01 0.31 0.30 98 1010.3
20260904075020 69 0 0.0 0.0 0.02 0.31 0.30 98 1010.5
20260904074552 69 0 0.0 0.0 0.02 0.31 0.30 98 1010.3
20260904074018 69 0 0.0 0.0 0.03 0.31 0.30 97 1010.3
20260904073518 69 0 0.0 0.0 0.06 0.31 0.30 97 1010.3
20260904073035 69 0 0.0 0.0 0.12 0.31 0.30 97 1010.3
20260904072517 69 0 0.0 0.0 0.13 0.31 0.30 97 1010.2
20260904072017 69 0 0.0 1.0 0.14 0.31 0.30 97 1010.3
20260904071548 69 0 0.0 1.0 0.17 0.31 0.30 97 1010.4
20260904071022 70 0 0.0 0.0 0.26 0.31 0.30 97 1010.7
20260904070517 70 0 0.0 3.0 0.29 0.30 0.29 97 1010.9
20260904070038 70 0 0.0 5.0 0.29 0.30 0.29 97 1011.2
20260904065518 70 0 0.0 10.0 0.29 0.31 0.29 97 1011.2
20260904065018 71 294 2.0 11.0 0.28 0.30 0.28 97 1011.5
20260904064541 72 341 4.0 11.0 0.28 0.30 0.28 98 1011.7
20260904064016 72 302 2.0 7.0 0.26 0.28 0.26 98 1011.5
20260904063516 72 325 0.0 5.0 0.23 0.25 0.23 98 1011.5
20260904063046 72 0 0.0 3.0 0.18 0.20 0.18 98 1011.4
20260904062519 72 0 0.0 3.0 0.17 0.19 0.17 98 1011.5
20260904062017 72 0 0.0 2.0 0.16 0.18 0.16 98 1011.1
20260904061534 72 0 0.0 2.0 0.13 0.15 0.13 98 1011.2
20260904061021 72 0 0.0 0.0 0.02 0.04 0.02 98 1011.4
20260904060520 72 0 0.0 0.0 0.00 0.02 0.00 98 1011.1
20260904060036 72 0 0.0 0.0 0.00 0.02 0.00 98 1011.1
20260904055521 72 0 0.0 0.0 0.00 0.04 0.00 98 1011.2
20260904055019 72 0 0.0 0.0 0.00 0.04 0.00 98 1011.3
20260904054537 72 0 0.0 0.0 0.00 0.04 0.00 98 1011.2
20260904054018 72 0 0.0 0.0 0.00 0.04 0.00 98 1011.4
20260904053520 72 0 0.0 0.0 0.00 0.04 0.00 98 1011.3
20260904053042 72 0 0.0 0.0 0.00 0.04 0.00 98 1011.3
20260904052516 72 0 0.0 0.0 0.00 0.04 0.00 98 1011.4
20260904052016 72 0 0.0 0.0 0.00 0.04 0.00 98 1011.3
20260904051535 72 0 0.0 0.0 0.00 0.04 0.00 98 1011.5
20260904051017 72 0 0.0 0.0 0.00 0.04 0.00 98 1011.4
20260904050521 72 0 0.0 0.0 0.00 0.04 0.00 98 1011.6
20260904050035 72 0 0.0 0.0 0.00 0.04 0.00 98 1011.6
20260904045516 72 0 0.0 0.0 0.00 0.27 0.00 98 1011.5
20260904045018 72 0 0.0 0.0 0.00 0.27 0.00 98 1011.6
20260904044535 72 0 0.0 0.0 0.00 0.27 0.00 98 1011.6
20260904044018 72 0 0.0 1.0 0.00 0.27 0.00 98 1011.3
20260904043517 72 0 0.0 1.0 0.00 0.27 0.00 98 1011.6
20260904043035 72 0 0.0 0.0 0.00 0.27 0.00 98 1011.6
20260904042521 72 0 0.0 0.0 0.00 0.27 0.00 98 1011.5
20260904042020 72 0 0.0 0.0 0.00 0.27 0.00 98 1011.9
20260904041540 72 0 0.0 0.0 0.00 0.27 0.00 98 1011.9
20260904041016 72 0 0.0 0.0 0.00 0.27 0.00 97 1012.0
20260904040521 72 0 0.0 0.0 0.00 0.27 0.00 97 1012.0
20260904040033 72 0 0.0 0.0 0.00 0.27 0.00 97 1012.0
20260904035521 72 0 0.0 0.0 0.00 0.28 0.27 97 1012.0
20260904035022 72 0 0.0 0.0 0.00 0.28 0.27 97 1012.0
20260904034536 72 0 0.0 0.0 0.00 0.28 0.27 97 1012.0
20260904034017 72 0 0.0 0.0 0.00 0.28 0.27 97 1011.9
20260904033516 72 0 0.0 1.0 0.00 0.28 0.27 97 1011.7
20260904033036 72 0 0.0 1.0 0.00 0.28 0.27 97 1011.5
20260904032520 72 0 0.0 0.0 0.00 0.28 0.27 97 1011.7
20260904032016 72 0 0.0 0.0 0.00 0.28 0.27 97 1011.6
20260904031536 72 0 0.0 0.0 0.00 0.28 0.27 97 1011.7
20260904031019 72 0 0.0 0.0 0.00 0.28 0.27 97 1011.7
20260904030520 72 0 0.0 0.0 0.00 0.28 0.27 97 1011.8
20260904030103 72 0 0.0 0.0 0.00 0.28 0.27 97 1011.9
20260904025518 72 0 0.0 0.0 0.00 0.28 0.27 97 1012.0
20260904025018 73 0 0.0 0.0 0.00 0.28 0.27 97 1012.0
20260904024533 73 0 0.0 0.0 0.00 0.28 0.27 97 1012.1
20260904024019 73 0 0.0 0.0 0.00 0.28 0.27 97 1012.2
20260904023517 73 0 0.0 0.0 0.00 0.28 0.27 97 1012.4
20260904023038 73 0 0.0 0.0 0.00 0.28 0.27 97 1012.4
20260904022518 73 0 0.0 0.0 0.00 0.28 0.27 97 1012.5
20260904022017 73 0 0.0 0.0 0.00 0.28 0.27 97 1012.5
20260904021546 73 0 0.0 0.0 0.00 0.28 0.27 97 1012.5
20260904021018 73 0 0.0 0.0 0.00 0.28 0.27 97 1012.6
20260904020518 73 0 0.0 0.0 0.00 0.28 0.27 97 1012.7
20260904020040 73 0 0.0 0.0 0.00 0.28 0.27 97 1012.7
20260904015515 72 0 0.0 0.0 0.00 0.28 0.27 97 1012.6
20260904015016 72 0 0.0 0.0 0.00 0.28 0.27 97 1012.5
20260904014536 72 0 0.0 0.0 0.00 0.28 0.27 97 1012.7
20260904014018 72 0 0.0 0.0 0.00 0.28 0.27 97 1012.8
20260904013523 72 0 0.0 0.0 0.00 0.28 0.27 97 1012.8
20260904013039 72 0 0.0 0.0 0.00 0.28 0.27 96 1012.8
20260904012518 72 0 0.0 0.0 0.00 0.28 0.27 97 1012.7
20260904012016 72 0 0.0 0.0 0.00 0.28 0.27 96 1012.8
20260904011537 72 0 0.0 0.0 0.00 0.28 0.27 96 1012.8
20260904011017 72 0 0.0 0.0 0.00 0.28 0.27 96 1012.5
20260904010521 72 0 0.0 0.0 0.00 0.28 0.27 96 1012.3
20260904010039 72 0 0.0 0.0 0.00 0.28 0.27 96 1012.3
20260904005519 72 0 0.0 0.0 0.00 0.28 0.27 96 1012.3
20260904005019 72 0 0.0 0.0 0.00 0.28 0.27 96 1012.4
20260904004535 72 0 0.0 0.0 0.00 0.28 0.27 95 1012.3
20260904004016 72 0 0.0 0.0 0.00 0.28 0.27 95 1012.2
20260904003517 72 0 0.0 0.0 0.00 0.28 0.27 95 1012.2
20260904003035 72 0 0.0 0.0 0.00 0.28 0.27 95 1012.3
20260904002520 73 0 0.0 0.0 0.00 0.28 0.27 95 1012.4
20260904002018 73 0 0.0 0.0 0.00 0.28 0.27 95 1012.5
20260904001535 73 0 0.0 0.0 0.00 0.28 0.27 95 1012.5
20260904001019 73 0 0.0 0.0 0.00 0.28 0.27 95 1012.3
20260904000517 73 0 0.0 0.0 0.00 0.28 0.27 95 1012.3
20260904000036 73 0 0.0 0.0 0.00 0.28 0.27 94 1012.2
20260903235517 74 0 0.0 0.0 0.00 0.28 0.27 94 1012.3
20260903235018 74 0 0.0 0.0 0.00 0.28 0.27 94 1012.3
20260903234537 74 0 0.0 0.0 0.00 0.28 0.27 94 1012.2
20260903234016 74 0 0.0 0.0 0.00 0.28 0.27 94 1012.2
20260903233516 75 0 0.0 0.0 0.00 0.28 0.27 93 1012.1
20260903233036 75 0 0.0 0.0 0.00 0.28 0.27 93 1012.1
20260903232519 75 0 0.0 0.0 0.00 0.28 0.27 93 1012.0
20260903232017 75 0 0.0 0.0 0.00 0.28 0.27 93 1011.9
20260903231534 76 0 0.0 0.0 0.00 0.28 0.27 93 1011.9
20260903231018 76 0 0.0 0.0 0.00 0.28 0.27 92 1011.8
20260903230519 76 0 0.0 0.0 0.00 0.28 0.27 92 1011.8
20260903230039 77 0 0.0 0.0 0.00 0.28 0.27 92 1011.7
20260903225516 77 0 0.0 0.0 0.00 0.28 0.27 91 1011.7
20260903225018 77 0 0.0 0.0 0.00 0.28 0.27 90 1011.7
20260903224540 78 0 0.0 0.0 0.00 0.28 0.27 89 1011.6
20260903224015 78 0 0.0 0.0 0.00 0.28 0.27 89 1011.7
20260903223518 79 0 0.0 0.0 0.00 0.28 0.27 88 1011.7
20260903223039 79 0 0.0 0.0 0.00 0.28 0.27 86 1011.8
20260903222516 80 0 0.0 0.0 0.00 0.28 0.27 85 1012.0
20260903222018 81 0 0.0 0.0 0.00 0.28 0.27 83 1011.9
20260903221546 83 0 0.0 0.0 0.00 0.28 0.27 81 1012.0
20260903221023 83 0 0.0 0.0 0.00 0.28 0.27 80 1011.9
20260903220518 84 0 0.0 2.0 0.00 0.28 0.27 77 1012.1
20260903220036 84 0 0.0 2.0 0.00 0.28 0.27 75 1012.0
20260903215518 85 0 0.0 2.0 0.00 0.28 0.27 76 1012.1
20260903215016 85 0 0.0 2.0 0.00 0.28 0.27 73 1012.0
20260903214535 85 0 0.0 2.0 0.00 0.28 0.27 74 1012.0
20260903214018 85 0 0.0 2.0 0.00 0.28 0.27 72 1012.0
20260903213520 85 0 0.0 1.0 0.00 0.28 0.27 75 1011.9
20260903213039 84 0 0.0 2.0 0.00 0.28 0.27 74 1012.0
20260903212518 84 0 0.0 2.0 0.00 0.28 0.27 75 1011.9
20260903212020 84 0 0.0 2.0 0.00 0.28 0.27 74 1011.9
20260903211536 84 0 0.0 3.0 0.00 0.28 0.27 74 1011.8
20260903211019 85 0 0.0 3.0 0.00 0.28 0.27 73 1011.8
20260903210516 85 242 0.0 3.0 0.00 0.28 0.27 73 1011.8
20260903210038 85 0 0.0 3.0 0.00 0.28 0.27 73 1011.7
20260903205520 85 0 0.0 6.0 0.00 0.28 0.27 72 1011.9
20260903205020 85 0 1.0 6.0 0.00 0.28 0.27 72 1011.9
20260903204533 85 352 0.0 5.0 0.00 0.28 0.27 73 1011.9
20260903204019 85 316 2.0 5.0 0.00 0.28 0.27 72 1012.0
20260903203521 85 0 1.0 4.0 0.00 0.28 0.27 73 1012.0
20260903203048 84 329 0.0 3.0 0.00 0.28 0.27 74 1011.9
20260903202519 85 331 1.0 5.0 0.00 0.28 0.27 71 1012.0
20260903202017 85 0 0.0 5.0 0.00 0.28 0.27 72 1012.0
20260903201537 85 167 0.0 4.0 0.00 0.28 0.27 73 1012.0
20260903201015 85 0 1.0 4.0 0.00 0.28 0.27 74 1012.0
20260903200518 84 0 0.0 3.0 0.00 0.28 0.27 72 1012.0
20260903200045 84 0 0.0 4.0 0.00 0.28 0.27 74 1012.1
20260903195515 83 334 0.0 6.0 0.00 0.28 0.27 75 1012.2
20260903195021 83 312 1.0 6.0 0.00 0.28 0.27 75 1012.2
20260903194542 83 5 0.0 2.0 0.00 0.28 0.27 77 1012.2
20260903194015 82 0 0.0 3.0 0.00 0.28 0.27 78 1012.3
20260903193519 82 0 0.0 3.0 0.00 0.28 0.27 79 1012.4
20260903193038 82 0 0.0 4.0 0.00 0.28 0.27 76 1012.4
20260903192518 83 0 0.0 4.0 0.00 0.28 0.27 75 1012.4
20260903192018 83 0 1.0 4.0 0.00 0.28 0.27 75 1012.4
20260903191538 83 313 1.0 4.0 0.00 0.28 0.27 75 1012.4
20260903191017 83 0 0.0 4.0 0.00 0.28 0.27 76 1012.4
20260903190517 82 0 0.0 4.0 0.00 0.28 0.27 79 1012.5
20260903190037 82 5 0.0 4.0 0.00 0.28 0.27 76 1012.6
20260903185515 82 0 0.0 3.0 0.00 0.35 0.27 78 1012.6
20260903185017 82 0 0.0 4.0 0.00 0.35 0.27 76 1012.7
20260903184537 82 0 0.0 4.0 0.00 0.35 0.27 77 1012.7
20260903184018 82 279 0.0 4.0 0.00 0.35 0.27 77 1012.8
20260903183520 81 0 1.0 4.0 0.00 0.35 0.27 76 1012.8
20260903183037 81 0 0.0 5.0 0.00 0.35 0.27 77 1012.7
20260903182516 82 0 1.0 6.0 0.00 0.35 0.27 77 1012.9
20260903182018 82 303 0.0 6.0 0.00 0.35 0.27 76 1012.9
20260903181535 82 0 2.0 8.0 0.00 0.35 0.27 76 1012.9
20260903181019 82 319 0.0 8.0 0.00 0.35 0.27 77 1013.0
20260903180520 82 12 2.0 8.0 0.00 0.35 0.27 74 1012.9
20260903180054 82 0 0.0 4.0 0.00 0.35 0.27 76 1013.0
20260903175517 82 337 1.0 8.0 0.00 0.52 0.27 75 1013.0
20260903175018 83 281 1.0 8.0 0.00 0.52 0.27 77 1013.0
20260903174535 83 288 2.0 8.0 0.00 0.52 0.27 77 1013.0
20260903174016 83 286 3.0 8.0 0.00 0.52 0.27 78 1013.0
20260903173518 83 0 1.0 8.0 0.00 0.52 0.27 74 1013.0
20260903173036 83 338 1.0 7.0 0.00 0.52 0.27 76 1013.1
20260903172522 82 219 1.0 8.0 0.00 0.52 0.27 77 1013.1
20260903172020 82 277 1.0 9.0 0.00 0.52 0.27 79 1013.2
20260903171551 82 269 3.0 9.0 0.00 0.52 0.27 75 1013.2
20260903171019 82 291 2.0 11.0 0.00 0.52 0.27 77 1013.3
20260903170521 81 298 2.0 11.0 0.00 0.52 0.27 76 1013.3
20260903170037 81 329 3.0 11.0 0.00 0.52 0.27 77 1013.4
20260903165516 81 360 3.0 10.0 0.00 0.52 0.27 78 1013.4
20260903165019 81 103 1.0 12.0 0.00 0.52 0.27 79 1013.4
20260903164542 81 315 3.0 12.0 0.00 0.52 0.27 77 1013.4
20260903164020 80 0 3.0 9.0 0.00 0.52 0.27 79 1013.4
20260903163517 80 300 2.0 10.0 0.00 0.52 0.27 81 1013.6
20260903163043 80 314 2.0 11.0 0.00 0.52 0.27 81 1013.7
20260903162517 79 312 2.0 11.0 0.00 0.52 0.27 81 1013.6
20260903162020 79 319 4.0 11.0 0.00 0.52 0.27 81 1013.6
20260903161538 79 324 1.0 8.0 0.00 0.52 0.27 84 1013.7
20260903161016 78 281 0.0 8.0 0.00 0.52 0.27 86 1013.9
20260903160518 78 300 1.0 7.0 0.00 0.52 0.27 86 1013.9
20260903160036 77 0 1.0 8.0 0.00 0.52 0.27 86 1014.1
20260903155519 76 0 1.0 8.0 0.00 0.52 0.27 86 1014.2
20260903155019 76 0 0.0 9.0 0.00 0.52 0.27 87 1014.3
20260903154536 76 0 2.0 9.0 0.00 0.52 0.27 85 1014.4
20260903154018 76 0 0.0 4.0 0.00 0.52 0.27 86 1014.3
20260903153519 76 237 0.0 4.0 0.00 0.52 0.27 87 1014.3
20260903153034 76 0 1.0 6.0 0.00 0.52 0.27 87 1014.4
20260903152521 75 0 0.0 8.0 0.00 0.52 0.27 88 1014.6
20260903152017 75 96 1.0 8.0 0.00 0.52 0.27 88 1014.7
20260903151536 75 351 1.0 8.0 0.00 0.52 0.27 88 1014.7
20260903151018 74 0 1.0 5.0 0.00 0.52 0.27 89 1014.7
20260903150515 74 298 0.0 5.0 0.00 0.52 0.27 89 1014.7
20260903150033 74 0 0.0 5.0 0.00 0.52 0.27 88 1014.6
20260903145518 74 0 0.0 8.0 0.00 0.52 0.27 90 1014.7
20260903145019 73 0 0.0 8.0 0.00 0.52 0.27 89 1014.7
20260903144539 73 306 1.0 7.0 0.00 0.52 0.27 90 1014.8
20260903144017 73 253 1.0 7.0 0.00 0.52 0.27 91 1014.8
20260903143518 73 0 0.0 3.0 0.00 0.52 0.27 92 1014.8
20260903143036 72 0 0.0 6.0 0.00 0.52 0.27 92 1014.8
20260903142516 72 190 1.0 6.0 0.00 0.52 0.27 92 1014.8
20260903142020 72 0 0.0 9.0 0.00 0.52 0.27 92 1014.9
20260903141534 72 0 0.0 9.0 0.00 0.52 0.27 92 1014.6
20260903141018 72 287 0.0 5.0 0.00 0.52 0.27 93 1014.8
20260903140515 71 0 0.0 5.0 0.00 0.52 0.27 93 1014.8
20260903140036 71 0 0.0 4.0 0.00 0.52 0.27 94 1014.7
20260903135515 71 176 0.0 6.0 0.00 0.52 0.27 94 1014.6
20260903135019 71 163 2.0 6.0 0.00 0.52 0.27 95 1014.5
20260903134533 70 107 0.0 2.0 0.00 0.52 0.27 96 1014.5
20260903134015 70 0 0.0 4.0 0.00 0.52 0.27 97 1014.6
20260903133519 70 0 0.0 4.0 0.00 0.52 0.27 97 1014.6
20260903133033 69 232 0.0 5.0 0.00 0.52 0.27 97 1014.6
20260903132519 69 0 0.0 5.0 0.00 0.52 0.27 97 1014.6
20260903132017 69 0 1.0 4.0 0.00 0.52 0.27 98 1014.5
20260903131540 69 268 0.0 5.0 0.00 0.52 0.27 98 1014.6
20260903131016 69 0 0.0 5.0 0.00 0.52 0.27 98 1014.6
20260903130518 69 0 0.0 5.0 0.00 0.52 0.27 98 1014.4
20260903130051 69 0 0.0 5.0 0.00 0.52 0.27 98 1014.5
20260903125521 68 0 0.0 3.0 0.00 0.52 0.27 98 1014.4
20260903125016 68 0 0.0 3.0 0.00 0.52 0.27 98 1014.4
20260903124538 68 0 0.0 3.0 0.00 0.52 0.27 98 1014.4
20260903124016 68 0 0.0 3.0 0.00 0.52 0.27 98 1014.4
20260903123518 68 0 0.0 4.0 0.00 0.52 0.27 98 1014.6
20260903123036 68 0 0.0 4.0 0.00 0.52 0.27 98 1014.6
20260903122517 68 0 0.0 3.0 0.00 0.52 0.27 98 1014.7
20260903122017 67 0 0.0 3.0 0.00 0.52 0.27 98 1014.7
20260903121544 67 0 0.0 3.0 0.00 0.52 0.27 98 1014.8
20260903121015 67 0 0.0 3.0 0.00 0.52 0.27 98 1014.7
20260903120516 67 0 0.0 3.0 0.00 0.52 0.27 98 1014.6
20260903120033 67 0 0.0 3.0 0.00 0.52 0.27 98 1014.8
20260903115517 67 226 0.0 3.0 0.00 0.52 0.27 99 1014.7
20260903115017 67 0 0.0 0.0 0.00 0.52 0.27 98 1014.7
20260903114536 67 0 0.0 0.0 0.00 0.52 0.27 98 1014.9
20260903114017 66 0 0.0 0.0 0.00 0.52 0.27 98 1015.0
20260903113516 66 0 0.0 0.0 0.00 0.52 0.27 98 1014.9
20260903113039 66 0 0.0 1.0 0.00 0.52 0.27 98 1014.9
20260903112518 66 0 0.0 2.0 0.00 0.52 0.27 98 1015.1
20260903112018 66 0 0.0 2.0 0.00 0.52 0.27 98 1015.2
20260903111536 66 0 0.0 1.0 0.00 0.52 0.27 98 1015.1
20260903111018 66 0 0.0 1.0 0.00 0.52 0.27 98 1015.3
20260903110521 66 0 0.0 1.0 0.00 0.52 0.27 98 1015.1